Location: Asheville, NC
(35.6000°N, 82.5500°W)
Time: 09:20:49
(UTC-04:00)

Vanguard 1 Rocket - Pass Details

Date: 13 March 2018
Orbit: 653 x 4224 km, 34.3° (Epoch: 24 June)

Event Time Altitude Azimuth Distance (km) Brightness Sun altitude
Rises 03:16:47 0° 282° (WNW) 7,023 11.7 -50.3°
Enters shadow 03:16:56 - 282° (WNW) 7,004 11.7 -50.3°
Reaches altitude 10° 03:22:00 10° 273° (W) 6,446 - -49.7°
Maximum altitude 03:39:25 29° 223° (SW) 5,817 - -47.2°
Exits shadow 03:57:05 13° 176° (S) 6,957 11.6 -44.4°
Drops below altitude 10° 03:59:15 10° 172° (S) 7,172 11.7 -44.1°
Sets 04:05:48 0° 162° (SSE) 7,876 12.0 -43.0°
